www.pogodaiklimat.ru

Погода и климат >> Архив погоды >> Россия >> Приморский край >> Агзу


ПОГОДА в Агзу

  • Прогноз погоды в Агзу
  • Монитор погоды в Агзу

АРХИВ ПОГОДЫ в Агзу

Время (UTC), дата Ветер
(напр.,м/с)
 
Видим.   Явления Облачность Т
(С)
Тd
(С)
f
(%)
Тe
(С)
Тes
(С)
Комфортность P
(гПа)
Po
(гПа)
Тmin
(С)
Tmax
(С)
R
(мм)
R24
(мм)
S
(см)
18 11.09 штиль 0 н/о н/о +6.5 +6.2 98 +5 +5 1016.7 996.2
21 11.09 штиль 0 50 км 4/4 1000 м
[Sc]
+6.1 +5.8 98 +5 +5 1018.6 998.1 +6.1 0.9
00 12.09 Ю 1 н/о н/о +15.5 +9.9 69 +16 +16 1017.9 998.1
03 12.09 З 2 50 км 5/5 1000 м
[Cu hum]
+20.8 +7.3 42 +23 +28 комфорт 1016.3 996.9
06 12.09 Ю 1 н/о н/о +20.6 +8.3 45 +23 +23 комфорт 1015.5 996.1
09 12.09 В 1 50 км 4/4 1000 м
[Sc]
+16.5 +10.7 69 +17 +17 1016.3 996.6 +21.8
12 12.09 СВ 1 н/о н/о +10.5 +8.3 86 +10 +10 1018.8 998.6
18 12.09 штиль 0 н/о н/о +4.0 +3.8 99 +3 +3 1020.0 999.3
21 12.09 штиль 0 20 км 10/10 100 м
[St]
+3.6 +3.4 99 +2 +2 1021.0 1000.3 +2.5
00 13.09 ЮЗ 1 н/о н/о +9.9 +7.3 84 +9 +9 1020.3 1000.1
03 13.09 В 1 50 км 10/0
[Cs]
+19.9 +8.5 48 +22 +32 комфорт 1015.8 996.3
06 13.09 Ю 3 н/о н/о +22.2 +9.8 45 +24 +24 комфорт 1012.7 993.4
09 13.09 В 1 50 км 10/0
[Ac As Cs]
+15.7 +10.4 71 +16 +16 1013.2 993.5 +23.3
12 13.09 СВ 1 н/о н/о +11.7 +9.6 87 +12 +12 1013.1 993.1
15 13.09 СЗ 1 20 км 10/4 1000 м
[Sc Ac trans Cc]
+10.4 +9.3 93 +10 +10 1010.5 990.5
18 13.09 штиль 0 н/о н/о +10.1 +9.3 95 +9 +9 1008.6 988.6
21 13.09 штиль 0 10 км слаб. ливневой дождь 10/10 600 м
[Cb cap]
+10.1 +9.6 97 +9 +9 1007.0 987.0 +9.6 2
00 14.09 ЮЗ 1 н/о н/о +12.1 +11.6 97 +12 +12 1006.0 986.2
03 14.09 В 1 50 км 10/6 600 м
[Sc Ac trans Cc]
+15.1 +12.1 82 +16 +18 1005.6 986.0
06 14.09 З 2 н/о н/о +21.6 +8.1 42 +23 +23 комфорт 1004.5 985.3
09 14.09 ЮЗ 1 50 км ясно +16.3 +7.9 57 +17 +17 1006.8 987.2 +22.1 3
12 14.09 штиль 0 н/о н/о +10.8 +8.2 84 +10 +10 1010.4 990.4
15 14.09 штиль 0 20 км 1/1 1000 м
[Sc]
+7.5 +6.6 94 +6 +6 1012.1 991.8
18 14.09 штиль 0 н/о н/о +4.7 +4.4 98 +3 +3 1013.8 993.3
21 14.09 штиль 0 50 км ясно +2.0 +1.8 99 +1 +1 1015.7 994.9 +2.0
00 15.09 ЮЗ 1 н/о н/о +13.1 +8.1 72 +13 +13 1015.4 995.5 +1.9
03 15.09 Ю 1 50 км 3/3 1000 м
[Cu hum]
+21.6 +8.7 44 +23 +32 комфорт 1011.8 992.5
06 15.09 штиль 0 н/о н/о +25.1 +7.2 32 +25 +25 комфорт 1010.0 991.0
09 15.09 СВ 1 50 км ясно +14.9 +10.7 76 +15 +15 1011.7 991.9 +25.2
12 15.09 СВ 2 н/о н/о +11.0 +8.5 85 +10 +10 1013.0 992.9
15 15.09 штиль 0 20 км ясно +5.9 +5.5 97 +5 +5 1013.3 992.9
18 15.09 штиль 0 н/о н/о +3.9 +3.6 98 +3 +3 1013.2 992.7
21 15.09 штиль 0 20 км 10/10 100 м
[St]
+4.9 +4.6 98 +4 +4 1012.8 992.3 +3.3
00 16.09 штиль 0 н/о н/о +9.6 +6.9 83 +9 +9 1011.9 991.7
03 16.09 Ю 1 50 км 5/3 1000 м
[Cu hum Ci fib]
+20.8 +9.7 49 +24 +32 комфорт 1007.3 988.0
06 16.09 ЮЗ 1 н/о н/о +17.2 +8.6 57 +18 +18 1008.9 989.4
09 16.09 СВ 1 50 км 1/1 1000 м
[Sc]
+12.9 +11.3 90 +13 +13 1008.8 989.0 +21.9
12 16.09 С 1 н/о н/о +8.4 +7.9 97 +7 +7 1011.1 990.9
15 16.09 СЗ 1 20 км ясно +5.5 +5.3 99 +4 +4 1013.1 992.6
18 16.09 штиль 0 н/о н/о +1.9 +1.7 99 +1 +1 1013.7 993.0
21 16.09 штиль 0 50 км ясно -0.8 -0.8 100 -2 -2 1015.1 994.1 -1.1
00 17.09 ЮЗ 1 н/о н/о +12.6 +2.4 50 +13 +13 1013.9 993.9
03 17.09 З 2 50 км ясно +18.5 -2.0 25 +19 +29 1012.0 992.4
06 17.09 З 1 н/о н/о +19.6 -3.1 21 +21 +21 комфорт 1011.6 992.1
09 17.09 С 1 50 км ясно +10.6 +4.8 67 +10 +10 1012.9 992.8 +19.9
12 17.09 С 1 н/о н/о +3.2 +2.4 94 +2 +2 1014.8 994.2
15 17.09 штиль 0 20 км 3/0
[Ac trans]
+0.2 0.0 99 -1 -1 1015.1 994.2
18 17.09 штиль 0 н/о н/о -1.9 -2.0 99 -3 -3 1013.7 992.6
21 17.09 штиль 0 50 км 5/3 100 м
[St Ci fib]
-2.7 -2.8 99 -4 -4 1012.3 991.3 -2.9
00 18.09 ЮЗ 1 н/о н/о +7.5 +3.5 76 +7 +7 1008.4 988.2
03 18.09 С 1 10 км слаб. ливневой дождь 10/10 600 м
[Cb cap]
+11.1 +10.5 96 +11 +11 1005.1 985.2
06 18.09 З 1 н/о н/о +7.6 +7.0 96 +7 +7 1003.6 983.5
09 18.09 штиль 0 50 км в посл. час ливневой дождь 8/8 300 м
[Cb cap]
+6.1 +5.3 95 +5 +5 1004.1 983.9 +13.5 16
12 18.09 штиль 0 н/о н/о +3.0 +2.8 99 +2 +2 1004.3 983.9

 

Местоположение метеостанции Агзу (Приморский край, Россия): широта 47.60 долгота 138.40 высота над уровнем моря 164 м.

В архиве по умолчанию представлена погода в Агзу за последнюю неделю. Архивные данные за месяц целиком и за предыдущие месяцы, начиная с января 2011 года, Вы можете получить, выбрав интересующий диапазон дат из раскрывающегося списка и нажав кнопку "Ввод!".


*Определитесь, кто Вы:
робот инопланетянин человек

Внимание! Время в таблицах - всемирное. Для получения местного времени необходимо прибавить поправку, которая равна 10 ч.

Смотрите также архив погоды в соседних городах и на ближайших метеорологических станциях:

Погода в Сукпае (Хабаровский край, Россия) (68 км)
Погода в Сосуново (Приморский край, Россия) (117 км)
Погода в Тивяку (Хабаровский край, Россия) (152 км)
Погода в Гвасюгах (Хабаровский край, Россия) (173 км)
Погода в Мопау (Хабаровский край, Россия) (176 км)
Погода в Солекуль (Хабаровский край, Россия) (177 км)
Погода в Советской Гавани (Хабаровский край, Россия) (210 км)
Погода в Бичевой (Хабаровский край, Россия) (210 км)
Погода в Оборе (Хабаровский край, Россия) (214 км)
Погода в Елабуге (Хабаровский край, Россия) (236 км)

Пояснения к столбцам:

Ветер - указаны скорость ветра в м/с - средняя за 10 мин, порывы в срок и между сроками (в фигурных скобках) и направление, откуда дует ветер: С - северный, СВ - северо-восточный, В - восточный, ЮВ - юго-восточный, Ю - южный, ЮЗ - юго-западный, З - западный, СЗ - северо-западный.
Видимость - горизонтальная дальность видимости в метрах или километрах. При видимости от 1 до 10 км при отсутствии осадков обычно наблюдается дымка, при ухудшении видимости до 1 км и менее - туман. В сухую погоду видимость может ухудшаться дымом, пылью или мглою.
Явления - указаны атмосферные явления, наблюдавшиеся в срок или в последний час перед сроком; фигурными скобками обозначены явления, наблюдавшиеся между сроками (за 1-3 часа до срока); квадратными скобками обозначены град или гололедные отложения с указанием их диаметра в мм.
Облачность - указаны через наклонную черту общая и нижняя облачность в баллах и высота нижней границы облаков в метрах; квадратными скобками обозначены формы облаков: Ci - перистые, Cs - перисто-слоистые, Cc - перисто-кучевые, Ac - высококучевые, As - высокослоистые, Sc - слоисто-кучевые, Ns - слоисто-дождевые, Cu - кучевые, Cb - кучево-дождевые. Подробнее классификацию облаков см. в Атласе облаков (PDF).
T - Температура воздуха - температура, измеренная на высоте 2 м над землей.
Td - Температура точки росы - температура, при понижении до которой содержащийся в воздухе водяной пар достигнет насыщения.
f - Относительная влажность воздуха - влажноcть воздуха, измеренная на высоте 2 м над землей.
Te - Эффективная температура - температура, которую ощущает одетый по сезону человек в тени. Характеристика душности погоды. При расчете учитывается влияние влажности воздуха и скорости ветра на теплоощущения человека.
Tes - Эффективная температура на солнце - температура, которую ощущает человек, с поправкой на солнечный нагрев. Характеристика знойности погоды. Зависит от высоты солнца над горизонтом, облачности и скорости ветра. Ночью, в пасмурную погоду, а также при ветре 12 м/с и более поправка равна нулю.
P - Атмосферное давление - приведенное к уровню моря атмосферное давление.
Po - Атмосферное давление - измеренное на уровне метеостанции атмосферное давление.
Tmin - Минимальная температура - минимум температуры воздуха на высоте 2 м над землей.
Tmax - Максимальная температура - максимум температуры воздуха на высоте 2 м над землей.
R - Количество осадков - Количество выпавших осадков за период времени, мм. При наведении курсора мыши на число - период времени, за который выпало указанное количество осадков.
R24 - Количество осадков - Количество выпавших осадков за 24 часа, мм.
S - Снежный покров - Высота снежного покрова, см. При наведении курсора мыши на число - состояние снежного покрова и степень покрытия местности в баллах.